This is the latest recevied weather packets stored in our database for station/object WX9WTF. If no packets are shown the sender has not sent any weather packets the latest 10 day(s).
| Time | Temp. | Humidity | Pressure | Rain* | Wind** | Luminosity | Snow |
|---|---|---|---|---|---|---|---|
| 1777839796 | 27.22° C | 40% | 1010.6 hPa | 0 mm | - | 653 W/m² | - |
| 1777839494 | 27.22° C | 39% | 1010.7 hPa | 0 mm | - | 642 W/m² | - |
| 1777839190 | 26.67° C | 43% | 1010.9 hPa | 0 mm | - | 636 W/m² | - |
| 1777838883 | 26.67° C | 39% | 1011.2 hPa | 0 mm | - | 637 W/m² | - |
| 1777838578 | 26.11° C | 41% | 1011 hPa | 0 mm | - | 642 W/m² | - |
| 1777838276 | 26.11° C | 43% | 1011.3 hPa | 0 mm | - | 651 W/m² | - |
| 1777837972 | 26.67° C | 42% | 1011.3 hPa | 0 mm | - | 664 W/m² | - |
| 1777837669 | 26.67° C | 41% | 1011.3 hPa | 0 mm | - | 687 W/m² | - |
| 1777837365 | 26.67° C | 46% | 1011.6 hPa | 0 mm | - | 709 W/m² | - |
| 1777837061 | 26.11° C | 44% | 1011.6 hPa | 0 mm | - | 731 W/m² | - |
| 1777836757 | 26.11° C | 41% | 1011.7 hPa | 0 mm | - | 763 W/m² | - |
| 1777836453 | 26.11° C | 44% | 1011.8 hPa | 0 mm | - | 785 W/m² | - |
| 1777836148 | 26.11° C | 42% | 1011.9 hPa | 0 mm | - | 801 W/m² | - |
| 1777835846 | 26.11° C | 45% | 1011.8 hPa | 0 mm | - | 819 W/m² | - |
| 1777835543 | 25.56° C | 44% | 1012 hPa | 0 mm | - | 833 W/m² | - |
| 1777835240 | 25.56° C | 43% | 1012.1 hPa | 0 mm | - | 846 W/m² | - |
| 1777834936 | 25.56° C | 46% | 1012.1 hPa | 0 mm | - | 855 W/m² | - |
| 1777834634 | 25° C | 42% | 1012.2 hPa | 0 mm | - | 864 W/m² | - |
| 1777834329 | 25° C | 43% | 1012.1 hPa | 0 mm | - | 872 W/m² | - |
| 1777834024 | 25° C | 44% | 1012.1 hPa | 0 mm | - | 876 W/m² | - |
| 1777833720 | 25° C | 43% | 1012.1 hPa | 0 mm | - | 876 W/m² | - |
| 1777833417 | 25° C | 46% | 1012.4 hPa | 0 mm | - | 885 W/m² | - |
| 1777833114 | 24.44° C | 43% | 1012.5 hPa | 0 mm | - | 885 W/m² | - |
| 1777832812 | 25° C | 43% | 1012.4 hPa | 0 mm | - | 892 W/m² | - |
| 1777832510 | 25° C | 44% | 1012.5 hPa | 0 mm | - | 893 W/m² | - |
* Rain latest hour (hover to see other rain measurements)
** Current wind speed in m/s (hover to see current wind gust speed)